Time,TemperatureF,DewpointF,PressureIn,WindDirection,WindDirectionDegrees,WindSpeedMPH,WindSpeedGustMPH,Humidity,HourlyPrecipIn,Conditions,Clouds,dailyrainin,SoftwareType,DateUTC
2013-10-04 01:29:00,55.0,53.0,29.94,NNW,331,0.0,0.0,92,0.00,,,0.00,,2013-10-04 05:29:00,
2013-10-04 02:00:00,55.0,53.0,29.94,NNW,331,0.0,0.0,92,0.00,,,0.00,,2013-10-04 06:00:00,
2013-10-04 02:19:00,55.0,53.0,29.94,NNW,331,0.0,0.0,92,0.00,,,0.00,,2013-10-04 06:19:00,
2013-10-04 02:28:00,55.0,53.0,29.94,NNW,331,0.0,0.0,92,0.00,,,0.00,,2013-10-04 06:28:00,
2013-10-04 02:59:00,55.0,53.0,29.93,NNW,331,0.0,0.0,93,0.00,,,0.00,,2013-10-04 06:59:00,
2013-10-04 03:18:00,55.0,53.0,29.93,NNW,331,0.0,0.0,93,0.00,,,0.00,,2013-10-04 07:18:00,
2013-10-04 03:28:00,55.0,53.0,29.92,NNW,331,0.0,0.0,93,0.00,,,0.00,,2013-10-04 07:28:00,
2013-10-04 03:47:00,55.0,53.0,29.93,NNW,331,0.0,1.0,93,0.00,,,0.00,,2013-10-04 07:47:00,
2013-10-04 03:59:00,55.0,53.0,29.93,NNW,331,0.0,1.0,93,0.00,,,0.00,,2013-10-04 07:59:00,
2013-10-04 04:18:00,54.0,52.0,29.93,NNW,331,0.0,0.0,93,0.00,,,0.00,,2013-10-04 08:18:00,
2013-10-04 04:28:00,54.0,52.0,29.93,NNW,331,0.0,0.0,93,0.00,,,0.00,,2013-10-04 08:28:00,
2013-10-04 04:47:00,54.0,52.0,29.93,NNW,331,0.0,0.0,93,0.00,,,0.00,,2013-10-04 08:47:00,
2013-10-04 04:59:00,53.0,51.0,29.93,NNW,331,0.0,0.0,93,0.00,,,0.00,,2013-10-04 08:59:00,
2013-10-04 05:18:00,53.0,51.0,29.93,NNW,331,0.0,0.0,93,0.00,,,0.00,,2013-10-04 09:18:00,
2013-10-04 05:28:00,53.0,51.0,29.93,NNW,331,0.0,0.0,92,0.00,,,0.00,,2013-10-04 09:28:00,
2013-10-04 05:49:00,52.0,50.0,29.93,NNW,331,0.0,0.0,93,0.00,,,0.00,,2013-10-04 09:49:00,
2013-10-04 06:01:00,52.0,50.0,29.94,NNW,331,0.0,0.0,93,0.00,,,0.00,,2013-10-04 10:01:00,
2013-10-04 06:21:00,51.0,49.0,29.94,NNW,331,0.0,0.0,93,0.00,,,0.00,,2013-10-04 10:21:00,
2013-10-04 06:31:00,51.0,49.0,29.94,NNW,331,0.0,0.0,93,0.00,,,0.00,,2013-10-04 10:31:00,
2013-10-04 06:50:00,50.0,48.0,29.95,NNW,331,0.0,0.0,93,0.00,,,0.00,,2013-10-04 10:50:00,
2013-10-04 07:01:00,50.0,48.0,29.95,NNW,331,0.0,1.0,94,0.00,,,0.00,,2013-10-04 11:01:00,
2013-10-04 07:21:00,50.0,48.0,29.94,NNW,331,0.0,0.0,94,0.00,,,0.00,,2013-10-04 11:21:00,
2013-10-04 07:30:00,50.0,49.0,29.94,NNW,331,0.0,1.0,96,0.00,,,0.00,,2013-10-04 11:30:00,
2013-10-04 07:49:00,51.0,50.0,29.95,NNW,331,1.0,2.0,97,0.00,,,0.00,,2013-10-04 11:49:00,
2013-10-04 08:01:00,52.0,51.0,29.96,NNW,331,0.0,2.0,97,0.00,,,0.00,,2013-10-04 12:01:00,
2013-10-04 08:21:00,53.0,52.0,29.96,NNW,331,0.0,2.0,97,0.00,,,0.00,,2013-10-04 12:21:00,
2013-10-04 08:30:00,54.0,53.0,29.96,North,5,2.0,4.0,96,0.00,,,0.00,,2013-10-04 12:30:00,
2013-10-04 08:49:00,54.0,53.0,29.96,North,5,1.0,4.0,95,0.00,,,0.00,,2013-10-04 12:49:00,
2013-10-04 09:01:00,55.0,54.0,29.96,North,360,1.0,3.0,95,0.00,,,0.00,,2013-10-04 13:01:00,
2013-10-04 09:20:00,56.0,54.0,29.97,NNW,343,0.0,4.0,94,0.00,,,0.00,,2013-10-04 13:20:00,
2013-10-04 09:30:00,57.0,54.0,29.98,North,355,0.0,3.0,91,0.00,,,0.00,,2013-10-04 13:30:00,
2013-10-04 09:49:00,57.0,54.0,29.98,North,355,0.0,1.0,89,0.00,,,0.00,,2013-10-04 13:49:00,
2013-10-04 09:57:00,58.0,55.0,29.98,North,355,0.0,2.0,90,0.00,,,0.00,,2013-10-04 13:57:00,
2013-10-04 10:20:00,58.0,55.0,29.97,North,355,0.0,1.0,90,0.00,,,0.00,,2013-10-04 14:20:00,
2013-10-04 10:28:00,58.0,55.0,29.97,North,355,0.0,0.0,91,0.00,,,0.00,,2013-10-04 14:28:00,
2013-10-04 10:49:00,58.0,56.0,29.98,North,355,0.0,0.0,92,0.00,,,0.00,,2013-10-04 14:49:00,
2013-10-04 10:57:00,58.0,56.0,29.98,NNE,31,0.0,0.0,92,0.01,,,0.01,,2013-10-04 14:57:00,
2013-10-04 11:10:00,58.0,56.0,29.98,NNE,31,0.0,0.0,92,0.01,,,0.01,,2013-10-04 15:10:00,
2013-10-04 11:21:00,58.0,56.0,29.98,NNE,31,0.0,0.0,92,0.01,,,0.01,,2013-10-04 15:21:00,
2013-10-04 11:29:00,58.0,56.0,29.98,NNE,31,0.0,0.0,92,0.01,,,0.01,,2013-10-04 15:29:00,
2013-10-04 11:50:00,58.0,56.0,29.98,NNE,31,0.0,0.0,93,0.02,,,0.02,,2013-10-04 15:50:00,
2013-10-04 11:58:00,58.0,56.0,29.98,NNE,31,0.0,0.0,92,0.02,,,0.02,,2013-10-04 15:58:00,
2013-10-04 12:22:00,58.0,56.0,29.98,NNE,31,0.0,2.0,93,0.01,,,0.02,,2013-10-04 16:22:00,
2013-10-04 12:31:00,58.0,56.0,29.97,NNE,31,0.0,1.0,94,0.01,,,0.02,,2013-10-04 16:31:00,
2013-10-04 12:51:00,59.0,57.0,29.98,NNE,31,0.0,1.0,94,0.00,,,0.02,,2013-10-04 16:51:00,
2013-10-04 12:58:00,59.0,58.0,29.98,NNE,31,0.0,1.0,95,0.02,,,0.04,,2013-10-04 16:58:00,
2013-10-04 13:22:00,59.0,58.0,29.97,NNE,31,0.0,1.0,97,0.03,,,0.05,,2013-10-04 17:22:00,
2013-10-04 13:31:00,60.0,58.0,29.96,NNE,31,0.0,1.0,94,0.03,,,0.05,,2013-10-04 17:31:00,
2013-10-04 13:59:00,60.0,58.0,29.94,NNE,31,0.0,0.0,93,0.01,,,0.05,,2013-10-04 17:59:00,
2013-10-04 14:25:00,60.0,58.0,29.94,NNE,31,0.0,1.0,93,0.00,,,0.05,,2013-10-04 18:25:00,
2013-10-04 14:32:00,61.0,59.0,29.94,NNE,23,0.0,2.0,92,0.00,,,0.05,,2013-10-04 18:32:00,
2013-10-04 14:52:00,61.0,58.0,29.94,NNE,23,0.0,2.0,91,0.00,,,0.05,,2013-10-04 18:52:00,
2013-10-04 15:12:00,62.0,60.0,29.93,North,360,0.0,3.0,92,0.00,,,0.05,,2013-10-04 19:12:00,
2013-10-04 15:22:00,63.0,60.0,29.93,North,360,0.0,3.0,89,0.00,,,0.05,,2013-10-04 19:22:00,
2013-10-04 15:43:00,63.0,59.0,29.93,North,360,0.0,2.0,87,0.00,,,0.05,,2013-10-04 19:43:00,
2013-10-04 15:52:00,63.0,60.0,29.93,North,360,1.0,3.0,89,0.00,,,0.05,,2013-10-04 19:52:00,
2013-10-04 16:11:00,63.0,60.0,29.93,North,360,0.0,2.0,89,0.00,,,0.05,,2013-10-04 20:11:00,
2013-10-04 16:22:00,63.0,59.0,29.93,WNW,290,0.0,3.0,88,0.00,,,0.05,,2013-10-04 20:22:00,
2013-10-04 16:52:00,62.0,58.0,29.93,WNW,302,0.0,2.0,87,0.00,,,0.05,,2013-10-04 20:52:00,
2013-10-04 17:12:00,62.0,58.0,29.93,WNW,299,0.0,1.0,87,0.00,,,0.05,,2013-10-04 21:12:00,
2013-10-04 17:22:00,62.0,58.0,29.93,WNW,299,0.0,2.0,88,0.00,,,0.05,,2013-10-04 21:22:00,
2013-10-04 17:43:00,62.0,59.0,29.93,WNW,299,0.0,0.0,90,0.00,,,0.05,,2013-10-04 21:43:00,
2013-10-04 17:54:00,62.0,59.0,29.93,WNW,299,0.0,0.0,91,0.00,,,0.05,,2013-10-04 21:54:00,
2013-10-04 18:12:00,62.0,59.0,29.93,WNW,299,0.0,1.0,91,0.00,,,0.05,,2013-10-04 22:12:00,
2013-10-04 18:23:00,62.0,59.0,29.94,WNW,299,0.0,0.0,91,0.00,,,0.05,,2013-10-04 22:23:00,
2013-10-04 18:43:00,62.0,60.0,29.94,WNW,299,0.0,1.0,92,0.00,,,0.05,,2013-10-04 22:43:00,
2013-10-04 18:52:00,61.0,59.0,29.94,WNW,299,0.0,0.0,92,0.00,,,0.05,,2013-10-04 22:52:00,
2013-10-04 19:12:00,61.0,59.0,29.94,WNW,299,0.0,0.0,92,0.00,,,0.05,,2013-10-04 23:12:00,
2013-10-04 19:22:00,60.0,58.0,29.94,WNW,299,0.0,0.0,92,0.00,,,0.05,,2013-10-04 23:22:00,
2013-10-04 19:42:00,60.0,58.0,29.94,WNW,299,0.0,0.0,93,0.00,,,0.05,,2013-10-04 23:42:00,
2013-10-04 19:53:00,59.0,57.0,29.93,WNW,299,0.0,0.0,93,0.00,,,0.05,,2013-10-04 23:53:00,
2013-10-04 20:12:00,59.0,57.0,29.94,WNW,299,0.0,0.0,93,0.00,,,0.05,,2013-10-05 00:12:00,
2013-10-04 20:23:00,58.0,56.0,29.94,WNW,299,0.0,0.0,94,0.00,,,0.05,,2013-10-05 00:23:00,
2013-10-04 20:42:00,58.0,57.0,29.94,WNW,299,0.0,0.0,95,0.00,,,0.05,,2013-10-05 00:42:00,
2013-10-04 20:52:00,58.0,57.0,29.93,WNW,299,0.0,0.0,95,0.00,,,0.05,,2013-10-05 00:52:00,
2013-10-04 21:11:00,57.0,55.0,29.94,WNW,299,0.0,0.0,94,0.00,,,0.05,,2013-10-05 01:11:00,
2013-10-04 21:22:00,57.0,56.0,29.94,WNW,299,0.0,1.0,95,0.00,,,0.05,,2013-10-05 01:22:00,
2013-10-04 21:43:00,56.0,55.0,29.95,WNW,299,0.0,1.0,95,0.00,,,0.05,,2013-10-05 01:43:00,
2013-10-04 21:52:00,56.0,55.0,29.96,WNW,299,0.0,0.0,95,0.00,,,0.05,,2013-10-05 01:52:00,
2013-10-04 22:11:00,56.0,55.0,29.95,WNW,299,0.0,1.0,95,0.00,,,0.05,,2013-10-05 02:11:00,
2013-10-04 22:22:00,55.0,54.0,29.96,WNW,299,0.0,0.0,95,0.00,,,0.05,,2013-10-05 02:22:00,
2013-10-04 22:42:00,55.0,54.0,29.96,WNW,299,0.0,0.0,96,0.00,,,0.05,,2013-10-05 02:42:00,
2013-10-04 22:52:00,55.0,54.0,29.96,WNW,299,0.0,0.0,96,0.00,,,0.05,,2013-10-05 02:52:00,
2013-10-04 23:12:00,55.0,54.0,29.96,WNW,299,0.0,0.0,97,0.00,,,0.05,,2013-10-05 03:12:00,
2013-10-04 23:23:00,56.0,55.0,29.96,NW,316,0.0,2.0,97,0.00,,,0.05,,2013-10-05 03:23:00,
2013-10-04 23:45:00,56.0,55.0,29.96,NW,316,0.0,0.0,97,0.00,,,0.05,,2013-10-05 03:45:00,
2013-10-04 23:55:00,56.0,55.0,29.96,NW,316,0.0,0.0,97,0.00,,,0.05,,2013-10-05 03:55:00,